Time,TemperatureF,DewpointF,PressureIn,WindDirection,WindDirectionDegrees,WindSpeedMPH,WindSpeedGustMPH,Humidity,HourlyPrecipIn,Conditions,Clouds,dailyrainin,SoftwareType,DateUTC
2013-02-24 00:01:00,25.0,20.0,29.83,South,173,0.0,0.0,82,0.00,,,0.00,,2013-02-24 06:01:00,
2013-02-24 00:11:00,25.0,20.0,29.83,South,173,0.0,0.0,82,0.00,,,0.00,,2013-02-24 06:11:00,
2013-02-24 00:21:00,24.0,19.0,29.83,South,173,0.0,0.0,82,0.00,,,0.00,,2013-02-24 06:21:00,
2013-02-24 00:31:00,24.0,19.0,29.83,South,173,0.0,0.0,82,0.00,,,0.00,,2013-02-24 06:31:00,
2013-02-24 00:42:00,24.0,19.0,29.83,South,173,0.0,0.0,82,0.00,,,0.00,,2013-02-24 06:42:00,
2013-02-24 00:52:00,24.0,19.0,29.83,South,173,0.0,0.0,82,0.00,,,0.00,,2013-02-24 06:52:00,
2013-02-24 01:01:00,23.0,18.0,29.84,South,173,0.0,0.0,82,0.00,,,0.00,,2013-02-24 07:01:00,
2013-02-24 01:12:00,23.0,18.0,29.84,South,173,0.0,0.0,82,0.00,,,0.00,,2013-02-24 07:12:00,
2013-02-24 01:21:00,23.0,18.0,29.84,South,173,0.0,0.0,82,0.00,,,0.00,,2013-02-24 07:21:00,
2013-02-24 01:32:00,22.0,17.0,29.85,South,173,0.0,0.0,82,0.00,,,0.00,,2013-02-24 07:32:00,
2013-02-24 01:42:00,22.0,17.0,29.85,South,173,0.0,0.0,82,0.00,,,0.00,,2013-02-24 07:42:00,
2013-02-24 01:51:00,22.0,17.0,29.85,South,173,0.0,0.0,82,0.00,,,0.00,,2013-02-24 07:51:00,
2013-02-24 02:01:00,21.0,17.0,29.85,South,173,0.0,0.0,83,0.00,,,0.00,,2013-02-24 08:01:00,
2013-02-24 02:11:00,21.0,17.0,29.85,South,173,0.0,0.0,83,0.00,,,0.00,,2013-02-24 08:11:00,
2013-02-24 02:22:00,21.0,17.0,29.85,South,173,0.0,1.0,83,0.00,,,0.00,,2013-02-24 08:22:00,
2013-02-24 02:31:00,21.0,17.0,29.85,South,173,0.0,0.0,83,0.00,,,0.00,,2013-02-24 08:31:00,
2013-02-24 02:42:00,21.0,17.0,29.85,South,173,0.0,0.0,83,0.00,,,0.00,,2013-02-24 08:42:00,
2013-02-24 02:53:00,20.0,16.0,29.85,South,173,0.0,0.0,83,0.00,,,0.00,,2013-02-24 08:53:00,
2013-02-24 03:01:00,20.0,16.0,29.85,South,173,0.0,0.0,84,0.00,,,0.00,,2013-02-24 09:01:00,
2013-02-24 03:11:00,20.0,16.0,29.85,South,173,0.0,0.0,84,0.00,,,0.00,,2013-02-24 09:11:00,
2013-02-24 03:21:00,20.0,16.0,29.85,South,173,0.0,0.0,84,0.00,,,0.00,,2013-02-24 09:21:00,
2013-02-24 03:31:00,20.0,16.0,29.86,South,173,0.0,0.0,84,0.00,,,0.00,,2013-02-24 09:31:00,
2013-02-24 03:42:00,20.0,16.0,29.86,South,173,0.0,0.0,84,0.00,,,0.00,,2013-02-24 09:42:00,
2013-02-24 03:51:00,19.0,15.0,29.85,South,173,0.0,0.0,84,0.00,,,0.00,,2013-02-24 09:51:00,
2013-02-24 04:01:00,19.0,15.0,29.85,South,173,0.0,0.0,84,0.00,,,0.00,,2013-02-24 10:01:00,
2013-02-24 04:11:00,19.0,15.0,29.85,South,173,0.0,0.0,84,0.00,,,0.00,,2013-02-24 10:11:00,
2013-02-24 04:21:00,19.0,15.0,29.85,South,173,0.0,0.0,84,0.00,,,0.00,,2013-02-24 10:21:00,
2013-02-24 04:32:00,19.0,16.0,29.85,South,173,0.0,0.0,86,0.00,,,0.00,,2013-02-24 10:32:00,
2013-02-24 04:41:00,19.0,16.0,29.85,South,173,0.0,0.0,86,0.00,,,0.00,,2013-02-24 10:41:00,
2013-02-24 04:52:00,20.0,16.0,29.85,South,173,0.0,0.0,85,0.00,,,0.00,,2013-02-24 10:52:00,
2013-02-24 05:01:00,20.0,16.0,29.85,South,173,0.0,0.0,85,0.00,,,0.00,,2013-02-24 11:01:00,
2013-02-24 05:11:00,20.0,16.0,29.85,South,173,0.0,0.0,85,0.00,,,0.00,,2013-02-24 11:11:00,
2013-02-24 05:21:00,19.0,15.0,29.87,South,173,0.0,0.0,85,0.00,,,0.00,,2013-02-24 11:21:00,
2013-02-24 05:32:00,19.0,15.0,29.87,South,173,0.0,0.0,85,0.00,,,0.00,,2013-02-24 11:32:00,
2013-02-24 05:41:00,19.0,15.0,29.87,South,173,0.0,0.0,85,0.00,,,0.00,,2013-02-24 11:41:00,
2013-02-24 05:53:00,19.0,15.0,29.88,South,173,0.0,0.0,84,0.00,,,0.00,,2013-02-24 11:53:00,
2013-02-24 06:01:00,19.0,15.0,29.88,South,173,0.0,0.0,84,0.00,,,0.00,,2013-02-24 12:01:00,
2013-02-24 06:11:00,19.0,15.0,29.88,South,173,0.0,0.0,84,0.00,,,0.00,,2013-02-24 12:11:00,
2013-02-24 06:22:00,19.0,15.0,29.89,South,173,0.0,0.0,84,0.00,,,0.00,,2013-02-24 12:22:00,
2013-02-24 06:32:00,19.0,15.0,29.89,South,173,0.0,0.0,84,0.00,,,0.00,,2013-02-24 12:32:00,
2013-02-24 06:46:00,19.0,15.0,29.89,South,173,0.0,0.0,84,0.00,,,0.00,,2013-02-24 12:46:00,
2013-02-24 06:56:00,20.0,16.0,29.89,South,173,0.0,0.0,86,0.00,,,0.00,,2013-02-24 12:56:00,
2013-02-24 07:09:00,20.0,16.0,29.89,South,173,0.0,0.0,86,0.00,,,0.00,,2013-02-24 13:09:00,
2013-02-24 07:17:00,20.0,16.0,29.89,South,173,0.0,0.0,86,0.00,,,0.00,,2013-02-24 13:17:00,
2013-02-24 07:26:00,20.0,16.0,29.89,South,173,0.0,0.0,86,0.00,,,0.00,,2013-02-24 13:26:00,
2013-02-24 07:33:00,21.0,18.0,29.89,South,173,0.0,0.0,87,0.00,,,0.00,,2013-02-24 13:33:00,
2013-02-24 07:53:00,21.0,18.0,29.91,South,173,0.0,0.0,87,0.00,,,0.00,,2013-02-24 13:53:00,
2013-02-24 08:04:00,21.0,18.0,29.91,South,173,0.0,0.0,87,0.00,,,0.00,,2013-02-24 14:04:00,
2013-02-24 08:13:00,21.0,18.0,29.91,South,173,0.0,0.0,87,0.00,,,0.00,,2013-02-24 14:13:00,
2013-02-24 08:23:00,21.0,18.0,29.91,South,173,0.0,0.0,88,0.00,,,0.00,,2013-02-24 14:23:00,
2013-02-24 08:33:00,22.0,19.0,29.91,South,173,0.0,0.0,88,0.00,,,0.00,,2013-02-24 14:33:00,
2013-02-24 08:44:00,22.0,19.0,29.91,South,173,0.0,0.0,88,0.00,,,0.00,,2013-02-24 14:44:00,
2013-02-24 08:53:00,23.0,20.0,29.92,South,173,0.0,0.0,87,0.00,,,0.00,,2013-02-24 14:53:00,
2013-02-24 09:03:00,23.0,20.0,29.92,South,173,0.0,0.0,87,0.00,,,0.00,,2013-02-24 15:03:00,
2013-02-24 09:13:00,23.0,20.0,29.92,South,173,0.0,0.0,87,0.00,,,0.00,,2013-02-24 15:13:00,
2013-02-24 09:23:00,24.0,21.0,29.92,South,173,0.0,2.0,87,0.00,,,0.00,,2013-02-24 15:23:00,
2013-02-24 09:32:00,25.0,21.0,29.92,South,173,0.0,1.0,86,0.00,,,0.00,,2013-02-24 15:32:00,
2013-02-24 09:42:00,25.0,21.0,29.92,South,173,0.0,1.0,86,0.00,,,0.00,,2013-02-24 15:42:00,
2013-02-24 09:52:00,27.0,23.0,29.93,South,173,0.0,1.0,83,0.00,,,0.00,,2013-02-24 15:52:00,
2013-02-24 10:01:00,28.0,23.0,29.93,South,173,0.0,0.0,81,0.00,,,0.00,,2013-02-24 16:01:00,
2013-02-24 10:11:00,28.0,23.0,29.93,South,173,0.0,0.0,81,0.00,,,0.00,,2013-02-24 16:11:00,
2013-02-24 10:21:00,28.0,22.0,29.93,South,173,0.0,0.0,79,0.00,,,0.00,,2013-02-24 16:21:00,
2013-02-24 10:32:00,29.0,23.0,29.93,South,173,0.0,0.0,77,0.00,,,0.00,,2013-02-24 16:32:00,
2013-02-24 10:42:00,29.0,23.0,29.93,South,173,0.0,0.0,77,0.00,,,0.00,,2013-02-24 16:42:00,
2013-02-24 10:52:00,32.0,24.0,29.95,South,173,0.0,0.0,72,0.00,,,0.00,,2013-02-24 16:52:00,
2013-02-24 11:01:00,34.0,25.0,29.95,South,173,0.0,0.0,69,0.00,,,0.00,,2013-02-24 17:01:00,
2013-02-24 11:11:00,34.0,25.0,29.95,South,173,0.0,0.0,69,0.00,,,0.00,,2013-02-24 17:11:00,
2013-02-24 11:21:00,34.0,23.0,29.94,South,173,0.0,2.0,65,0.00,,,0.00,,2013-02-24 17:21:00,
2013-02-24 11:32:00,35.0,24.0,29.94,South,173,0.0,1.0,64,0.00,,,0.00,,2013-02-24 17:32:00,
2013-02-24 11:42:00,35.0,24.0,29.94,South,173,0.0,1.0,64,0.00,,,0.00,,2013-02-24 17:42:00,
2013-02-24 11:53:00,35.0,24.0,29.94,East,95,0.0,3.0,64,0.00,,,0.00,,2013-02-24 17:53:00,
2013-02-24 12:01:00,36.0,25.0,29.94,East,97,0.0,2.0,63,0.00,,,0.00,,2013-02-24 18:01:00,
2013-02-24 12:11:00,36.0,25.0,29.94,East,97,0.0,2.0,63,0.00,,,0.00,,2013-02-24 18:11:00,
2013-02-24 12:22:00,36.0,24.0,29.94,East,97,0.0,1.0,62,0.00,,,0.00,,2013-02-24 18:22:00,
2013-02-24 12:32:00,36.0,24.0,29.94,East,97,0.0,1.0,62,0.00,,,0.00,,2013-02-24 18:32:00,
2013-02-24 12:42:00,36.0,24.0,29.94,East,97,0.0,1.0,62,0.00,,,0.00,,2013-02-24 18:42:00,
2013-02-24 12:51:00,38.0,25.0,29.94,SSE,153,0.0,2.0,59,0.00,,,0.00,,2013-02-24 18:51:00,
2013-02-24 13:01:00,38.0,25.0,29.93,SSE,153,0.0,1.0,59,0.00,,,0.00,,2013-02-24 19:01:00,
2013-02-24 13:11:00,38.0,25.0,29.93,SSE,153,0.0,1.0,59,0.00,,,0.00,,2013-02-24 19:11:00,
2013-02-24 13:22:00,40.0,26.0,29.93,SSE,154,0.0,3.0,57,0.00,,,0.00,,2013-02-24 19:22:00,
2013-02-24 13:32:00,41.0,25.0,29.91,SSE,148,0.0,4.0,53,0.00,,,0.00,,2013-02-24 19:32:00,
2013-02-24 13:42:00,41.0,25.0,29.91,SSE,148,0.0,4.0,53,0.00,,,0.00,,2013-02-24 19:42:00,
2013-02-24 13:51:00,41.0,25.0,29.91,SSE,148,0.0,4.0,53,0.00,,,0.00,,2013-02-24 19:51:00,
2013-02-24 14:02:00,42.0,25.0,29.91,SSE,163,1.0,5.0,50,0.00,,,0.00,,2013-02-24 20:02:00,
2013-02-24 14:11:00,42.0,25.0,29.91,SSE,163,1.0,5.0,50,0.00,,,0.00,,2013-02-24 20:11:00,
2013-02-24 14:21:00,42.0,25.0,29.91,SSE,163,1.0,5.0,50,0.00,,,0.00,,2013-02-24 20:21:00,
2013-02-24 14:32:00,43.0,24.0,29.89,South,176,2.0,7.0,47,0.00,,,0.00,,2013-02-24 20:32:00,
2013-02-24 14:42:00,43.0,24.0,29.89,South,176,2.0,7.0,47,0.00,,,0.00,,2013-02-24 20:42:00,
2013-02-24 14:52:00,43.0,24.0,29.89,South,178,1.0,7.0,46,0.00,,,0.00,,2013-02-24 20:52:00,
2013-02-24 15:01:00,43.0,24.0,29.89,South,178,0.0,0.0,47,0.00,,,0.00,,2013-02-24 21:01:00,
2013-02-24 15:11:00,43.0,24.0,29.89,South,178,0.0,0.0,47,0.00,,,0.00,,2013-02-24 21:11:00,
2013-02-24 15:21:00,43.0,24.0,29.89,South,178,0.0,0.0,47,0.00,,,0.00,,2013-02-24 21:21:00,
2013-02-24 15:32:00,42.0,24.0,29.89,SE,136,0.0,0.0,49,0.00,,,0.00,,2013-02-24 21:32:00,
2013-02-24 15:42:00,42.0,24.0,29.89,SE,136,0.0,0.0,49,0.00,,,0.00,,2013-02-24 21:42:00,
2013-02-24 15:52:00,43.0,24.0,29.89,SE,136,0.0,0.0,47,0.00,,,0.00,,2013-02-24 21:52:00,
2013-02-24 16:01:00,41.0,24.0,29.88,SE,132,0.0,2.0,50,0.00,,,0.00,,2013-02-24 22:01:00,
2013-02-24 16:11:00,41.0,24.0,29.88,SE,132,0.0,2.0,50,0.00,,,0.00,,2013-02-24 22:11:00,
2013-02-24 16:21:00,41.0,23.0,29.88,SE,132,0.0,0.0,49,0.00,,,0.00,,2013-02-24 22:21:00,
2013-02-24 16:31:00,41.0,24.0,29.89,SE,128,0.0,3.0,50,0.00,,,0.00,,2013-02-24 22:31:00,
2013-02-24 16:41:00,41.0,24.0,29.89,SE,128,0.0,3.0,50,0.00,,,0.00,,2013-02-24 22:41:00,
2013-02-24 16:51:00,41.0,25.0,29.89,ESE,121,0.0,3.0,52,0.00,,,0.00,,2013-02-24 22:51:00,
2013-02-24 17:02:00,41.0,25.0,29.90,ENE,64,1.0,4.0,53,0.00,,,0.00,,2013-02-24 23:02:00,
2013-02-24 17:11:00,41.0,25.0,29.90,ENE,64,1.0,4.0,53,0.00,,,0.00,,2013-02-24 23:11:00,
2013-02-24 17:21:00,41.0,26.0,29.90,ENE,64,1.0,4.0,54,0.00,,,0.00,,2013-02-24 23:21:00,
2013-02-24 17:31:00,40.0,25.0,29.91,ENE,64,0.0,3.0,55,0.00,,,0.00,,2013-02-24 23:31:00,
2013-02-24 17:42:00,40.0,25.0,29.91,ENE,64,0.0,3.0,55,0.00,,,0.00,,2013-02-24 23:42:00,
2013-02-24 17:52:00,39.0,25.0,29.91,ENE,65,1.0,4.0,56,0.00,,,0.00,,2013-02-24 23:52:00,
2013-02-24 18:01:00,38.0,25.0,29.91,ENE,68,1.0,4.0,59,0.00,,,0.00,,2013-02-25 00:01:00,
2013-02-24 18:11:00,38.0,25.0,29.91,ENE,68,1.0,4.0,59,0.00,,,0.00,,2013-02-25 00:11:00,
2013-02-24 18:21:00,38.0,25.0,29.91,ENE,68,1.0,4.0,59,0.00,,,0.00,,2013-02-25 00:21:00,
2013-02-24 18:32:00,38.0,25.0,29.93,ENE,61,0.0,3.0,60,0.00,,,0.00,,2013-02-25 00:32:00,
2013-02-24 18:42:00,38.0,25.0,29.93,ENE,61,0.0,3.0,60,0.00,,,0.00,,2013-02-25 00:42:00,
2013-02-24 18:52:00,37.0,25.0,29.93,ENE,61,0.0,1.0,61,0.00,,,0.00,,2013-02-25 00:52:00,
2013-02-24 19:01:00,37.0,25.0,29.93,ENE,61,0.0,1.0,62,0.00,,,0.00,,2013-02-25 01:01:00,
2013-02-24 19:11:00,37.0,25.0,29.93,ENE,61,0.0,1.0,62,0.00,,,0.00,,2013-02-25 01:11:00,
2013-02-24 19:21:00,37.0,26.0,29.94,ENE,61,0.0,2.0,63,0.00,,,0.00,,2013-02-25 01:21:00,
2013-02-24 19:31:00,37.0,26.0,29.94,ENE,61,0.0,0.0,64,0.00,,,0.00,,2013-02-25 01:31:00,
2013-02-24 19:42:00,37.0,26.0,29.94,ENE,61,0.0,0.0,64,0.00,,,0.00,,2013-02-25 01:42:00,
2013-02-24 19:52:00,37.0,26.0,29.96,ENE,61,0.0,0.0,64,0.00,,,0.00,,2013-02-25 01:52:00,
2013-02-24 20:01:00,37.0,26.0,29.96,ENE,61,0.0,0.0,64,0.00,,,0.00,,2013-02-25 02:01:00,
2013-02-24 20:11:00,37.0,26.0,29.96,ENE,61,0.0,0.0,64,0.00,,,0.00,,2013-02-25 02:11:00,
2013-02-24 20:21:00,37.0,27.0,29.96,ENE,61,0.0,1.0,66,0.00,,,0.00,,2013-02-25 02:21:00,
2013-02-24 20:31:00,36.0,26.0,29.96,ENE,61,0.0,2.0,67,0.00,,,0.00,,2013-02-25 02:31:00,
2013-02-24 20:42:00,36.0,26.0,29.96,ENE,61,0.0,2.0,67,0.00,,,0.00,,2013-02-25 02:42:00,
2013-02-24 20:52:00,36.0,26.0,29.96,ENE,61,0.0,0.0,67,0.00,,,0.00,,2013-02-25 02:52:00,
2013-02-24 21:01:00,36.0,26.0,29.96,ENE,61,0.0,1.0,66,0.00,,,0.00,,2013-02-25 03:01:00,
2013-02-24 21:11:00,36.0,26.0,29.96,ENE,61,0.0,1.0,66,0.00,,,0.00,,2013-02-25 03:11:00,
2013-02-24 21:21:00,36.0,25.0,29.98,ENE,61,0.0,2.0,65,0.00,,,0.00,,2013-02-25 03:21:00,
2013-02-24 21:31:00,36.0,26.0,29.98,ENE,61,0.0,1.0,66,0.00,,,0.00,,2013-02-25 03:31:00,
2013-02-24 21:41:00,36.0,26.0,29.98,ENE,61,0.0,1.0,66,0.00,,,0.00,,2013-02-25 03:41:00,
2013-02-24 21:52:00,36.0,26.0,29.98,ENE,61,0.0,3.0,67,0.00,,,0.00,,2013-02-25 03:52:00,
2013-02-24 22:01:00,36.0,26.0,29.98,NE,53,0.0,3.0,68,0.00,,,0.00,,2013-02-25 04:01:00,
2013-02-24 22:11:00,36.0,26.0,29.98,NE,53,0.0,3.0,68,0.00,,,0.00,,2013-02-25 04:11:00,
2013-02-24 22:21:00,35.0,27.0,29.98,North,5,1.0,4.0,72,0.00,,,0.00,,2013-02-25 04:21:00,
2013-02-24 22:31:00,35.0,27.0,29.98,North,5,0.0,4.0,73,0.00,,,0.00,,2013-02-25 04:31:00,
2013-02-24 22:41:00,35.0,27.0,29.98,North,5,0.0,4.0,73,0.00,,,0.00,,2013-02-25 04:41:00,
2013-02-24 22:52:00,34.0,27.0,29.98,North,355,2.0,5.0,74,0.00,,,0.00,,2013-02-25 04:52:00,
2013-02-24 23:01:00,34.0,27.0,29.98,North,355,1.0,5.0,74,0.00,,,0.00,,2013-02-25 05:01:00,
2013-02-24 23:11:00,34.0,27.0,29.98,North,355,1.0,5.0,74,0.00,,,0.00,,2013-02-25 05:11:00,
2013-02-24 23:22:00,34.0,27.0,29.98,North,355,1.0,4.0,75,0.00,,,0.00,,2013-02-25 05:22:00,
2013-02-24 23:31:00,34.0,27.0,29.98,North,355,1.0,4.0,75,0.00,,,0.00,,2013-02-25 05:31:00,
2013-02-24 23:42:00,34.0,27.0,29.98,North,355,1.0,4.0,75,0.00,,,0.00,,2013-02-25 05:42:00,
2013-02-24 23:52:00,34.0,27.0,29.98,North,350,0.0,5.0,76,0.00,,,0.00,,2013-02-25 05:52:00,